Houma, LA

9:23 AM CST on December 15, 2017 (GMT -0600)
Houma-terrebonne

Weather History for KHUM - October, 2013

Change the Weather History Date:

Thursday, October 3, 2013

  Actual Average Record
Temperature  
Mean Temperature 79 °F -  
Max Temperature 89 °F 84 °F 92 °F (1960)
Min Temperature 69 °F 61 °F 46 °F (1984)
Cooling Degree Days 14    
Growing Degree Days 29 (Base 50)    
Moisture  
Dew Point 70 °F    
Average Humidity 82    
Maximum Humidity 94    
Minimum Humidity 49    
Precipitation  
Precipitation 0.00 in - - ()
Sea Level Pressure  
Sea Level Pressure 29.97 in    
Wind  
Wind Speed 2 mph (East)    
Max Wind Speed 9 mph    
Max Gust Speed -    
Visibility 7 miles    
Events Thunderstorm    
Averages and records for this station are not official NWS values.
T = Trace of Precipitation, MM = Missing Value Source: NWS Daily Summary

Daily Weather History Graph

Daily Weather History Graph

Search for Another Location

Airport or City:

Trip Planner

Search our weather history database for the weather conditions in past years. The results will help you decide how hot, cold, wet, or windy it might be!

Date:

Astronomy

Oct. 03, 2013 Rise Set
Actual Time 6:57 AM CDT 6:45 PM CDT
Civil Twilight 6:33 AM CDT 7:09 PM CDT
Nautical Twilight 6:05 AM CDT 7:36 PM CDT
Astronomical Twilight 5:38 AM CDT 8:04 PM CDT
Moon 5:34 AM CDT (10/3) 5:52 PM CDT (10/3)
Length of Visible Light 12h 35m
Length of Day
11h 48m
Waning Crescent, 2% of the Moon is Illuminated
Oct 3
Waning Crescent
Oct 4
New
Oct 11
First Quarter
Oct 18
Full
Oct 26
Last Quarter

Hourly Weather History & Observations

Time (CDT) Temp. Heat Index Dew Point Humidity Pressure Visibility Wind Dir Wind Speed Gust Speed Precip Events Conditions
12:15 AM 72.5 °F - 69.6 °F 91% 29.99 in 10.0 mi Calm Calm - N/A   Clear
12:35 AM 72.5 °F - 69.4 °F 90% 29.99 in 10.0 mi Calm Calm - N/A   Clear
12:55 AM 72.0 °F - 68.9 °F 90% 29.98 in 10.0 mi Calm Calm - N/A   Clear
1:15 AM 71.4 °F - 68.5 °F 91% 29.98 in 7.0 mi Calm Calm - N/A   Clear
1:35 AM 70.9 °F - 68.2 °F 91% 29.98 in 5.0 mi Calm Calm - N/A   Clear
1:55 AM 70.3 °F - 67.6 °F 91% 29.97 in 7.0 mi Calm Calm - N/A   Clear
2:15 AM 70.7 °F - 68.0 °F 91% 29.97 in 3.0 mi Calm Calm - N/A   Clear
2:35 AM 71.2 °F - 68.9 °F 92% 29.96 in 5.0 mi Calm Calm - N/A   Clear
2:55 AM 70.5 °F - 67.8 °F 91% 29.96 in 3.0 mi Calm Calm - N/A   Clear
3:15 AM 71.6 °F - 68.9 °F 91% 29.96 in 7.0 mi Calm Calm - N/A   Clear
3:35 AM 70.0 °F - 67.3 °F 91% 29.95 in 1.0 mi Calm Calm - N/A   Mist
3:55 AM 70.2 °F - 67.6 °F 92% 29.94 in 2.0 mi Calm Calm - N/A   Clear
4:15 AM 69.6 °F - 66.9 °F 91% 29.94 in 3.0 mi Calm Calm - N/A   Clear
4:35 AM 71.4 °F - 68.9 °F 92% 29.94 in 5.0 mi Calm Calm - N/A   Clear
4:55 AM 70.0 °F - 67.6 °F 92% 29.94 in 1.8 mi Calm Calm - N/A   Mist
5:15 AM 70.7 °F - 68.2 °F 92% 29.94 in 3.0 mi Calm Calm - N/A   Clear
5:35 AM 71.1 °F - 68.7 °F 92% 29.95 in 5.0 mi Calm Calm - N/A   Clear
5:48 AM 69.8 °F - 66.2 °F 88% 29.96 in 5.0 mi ENE 4.6 mph - N/A   Clear
5:55 AM 69.8 °F - 67.3 °F 92% 29.95 in 0.8 mi Calm Calm - N/A   Mist
6:50 AM 71.6 °F - 69.8 °F 94% 29.97 in 1.0 mi Calm Calm - N/A   Clear
7:50 AM 73.4 °F - 71.6 °F 94% 29.99 in 2.0 mi Calm Calm - N/A   Clear
8:06 AM 75.2 °F - 73.4 °F 94% 29.99 in 5.0 mi Calm Calm - N/A   Clear
8:47 AM 80.6 °F 86.2 °F 75.2 °F 84% 30.00 in 7.0 mi ENE 6.9 mph - N/A   Scattered Clouds
9:49 AM 84.2 °F 90.9 °F 73.4 °F 70% 30.03 in 7.0 mi East 6.9 mph - N/A   Scattered Clouds
10:48 AM 87.8 °F 92.6 °F 69.8 °F 55% 30.03 in 7.0 mi ESE 9.2 mph - N/A   Scattered Clouds
11:50 AM 89.6 °F 94.7 °F 69.8 °F 52% 30.01 in 7.0 mi East 9.2 mph - N/A   Scattered Clouds
12:50 PM 89.6 °F 93.4 °F 68.0 °F 49% 29.99 in 7.0 mi ESE 9.2 mph - N/A   Mostly Cloudy
1:50 PM 87.8 °F 91.4 °F 68.0 °F 52% 29.97 in 7.0 mi East 9.2 mph - N/A   Mostly Cloudy
2:50 PM 87.8 °F 92.6 °F 69.8 °F 55% 29.94 in 7.0 mi East 9.2 mph - N/A   Scattered Clouds
3:50 PM 87.8 °F 92.6 °F 69.8 °F 55% 29.93 in 7.0 mi NE 6.9 mph - N/A   Scattered Clouds
4:47 PM 84.2 °F 90.9 °F 73.4 °F 70% 29.93 in 7.0 mi East 9.2 mph - N/A   Scattered Clouds
5:50 PM 84.2 °F 89.6 °F 71.6 °F 66% 29.93 in 7.0 mi East 9.2 mph - N/A   Scattered Clouds
6:50 PM 80.6 °F 83.9 °F 69.8 °F 70% 29.94 in 7.0 mi ENE 5.8 mph - N/A   Scattered Clouds
7:15 PM 79.2 °F - 70.5 °F 75% 29.94 in 10.0 mi East 4.6 mph - N/A   Scattered Clouds
7:35 PM 78.8 °F - 71.4 °F 78% 29.94 in 10.0 mi East 5.8 mph - N/A   Mostly Cloudy
7:55 PM 78.8 °F - 72.5 °F 81% 29.95 in 10.0 mi East 5.8 mph - N/A Thunderstorm Mostly Cloudy
8:15 PM 78.3 °F - 73.0 °F 84% 29.95 in 10.0 mi East 5.8 mph - N/A   Scattered Clouds
8:35 PM 77.9 °F - 73.4 °F 86% 29.95 in 10.0 mi East 4.6 mph - N/A   Clear
8:55 PM 77.9 °F - 73.0 °F 85% 29.97 in 10.0 mi East 4.6 mph - N/A   Scattered Clouds
9:15 PM 77.5 °F - 73.0 °F 86% 29.97 in 10.0 mi East 5.8 mph - N/A Thunderstorm Scattered Clouds
9:35 PM 77.9 °F - 73.4 °F 86% 29.97 in 10.0 mi East 5.8 mph - N/A   Mostly Cloudy
9:55 PM 78.3 °F - 73.4 °F 85% 29.98 in 10.0 mi East 8.1 mph - N/A   Mostly Cloudy
10:15 PM 78.4 °F - 73.4 °F 84% 29.99 in 10.0 mi ESE 9.2 mph - N/A   Overcast
10:35 PM 78.1 °F - 73.6 °F 86% 29.99 in 10.0 mi ESE 5.8 mph - N/A   Overcast
11:35 PM 77.5 °F - 72.9 °F 85% 29.99 in 10.0 mi ESE 8.1 mph - N/A   Mostly Cloudy
11:55 PM 77.2 °F - 71.6 °F 83% 29.99 in 10.0 mi ESE 8.1 mph - N/A   Mostly Cloudy